Location: Newark
(59.0255°N, 3.2035°E)
Time: 23:17:35
(UTC+00:00)

Envisat - Visible Passes

Search period start: 15 December 2019 00:00
Search period end: 25 December 2019 00:00
Orbit: 764 x 766 km, 98.1° (Epoch: 15 December)

Date Brightness Start Highest point End Pass type
(mag) Time Alt. Az. Time Alt. Az. Time Alt. Az.
15 Dec 6.1 04:54:36 10° NE 04:56:36 12° ENE 04:58:35 10° ESE visible
15 Dec 3.8 06:31:49 10° NNE 06:36:50 54° E 06:41:49 10° S visible
15 Dec 3.4 16:17:10 10° SE 16:21:52 39° ENE 16:26:35 10° N visible
15 Dec 3.9 17:55:54 10° S 18:00:51 51° W 18:05:50 10° NNW visible
15 Dec 6.2 19:39:35 10° W 19:41:08 11° WNW 19:42:42 10° WNW visible
16 Dec 4.9 05:55:15 10° NNE 05:59:47 31° E 06:04:17 10° SSE visible
16 Dec 3.0 07:34:08 10° NNE 07:39:10 61° WNW 07:44:11 10° SW visible
16 Dec 4.0 15:41:19 10° ESE 15:45:24 25° NE 15:49:31 10° N visible
16 Dec 3.0 17:18:51 10° SSE 17:23:57 87° WSW 17:29:05 10° NNW visible
16 Dec 5.5 19:00:01 10° SW 19:03:44 20° W 19:07:28 10° NW visible
17 Dec 5.8 05:19:03 10° NE 05:22:32 18° E 05:26:01 10° SE visible
17 Dec 3.2 06:57:17 10° NNE 07:02:25 80° ESE 07:07:31 10° SSW visible
17 Dec 3.1 16:42:16 10° SE 16:47:13 55° ENE 16:52:13 10° NNW visible
17 Dec 4.6 18:21:55 10° SSW 18:26:32 34° W 18:31:11 10° NNW visible
18 Dec 4.2 06:20:34 10° NNE 06:25:29 46° E 06:30:22 10° S visible
18 Dec 3.6 16:06:07 10° ESE 16:10:40 34° ENE 16:15:13 10° N visible
18 Dec 3.5 17:44:29 10° S 17:49:30 60° WSW 17:54:34 10° NNW visible
18 Dec 6.0 19:27:10 10° WSW 19:29:39 14° W 19:32:09 10° NW visible
19 Dec 5.2 05:44:05 10° NNE 05:48:23 27° E 05:52:39 10° SSE visible
19 Dec 3.0 07:22:49 10° NNE 07:27:55 71° WNW 07:32:58 10° SSW visible
19 Dec 2.9 17:07:35 10° SSE 17:12:40 80° ENE 17:17:47 10° NNW visible
19 Dec 5.3 18:48:15 10° SW 18:52:18 24° W 18:56:23 10° NW visible
20 Dec 6.0 05:08:06 10° NE 05:11:05 15° E 05:14:04 10° ESE visible
20 Dec 3.4 06:46:00 10° NNE 06:51:06 68° ESE 06:56:11 10° S visible
20 Dec 3.2 16:31:08 10° SE 16:35:59 48° ENE 16:40:53 10° N visible
20 Dec 4.3 18:10:22 10° SSW 18:15:09 40° W 18:19:58 10° NNW visible
21 Dec 4.5 06:09:20 10° NNE 06:14:07 39° E 06:18:52 10° SSE visible
21 Dec 3.8 15:55:06 10° ESE 15:59:28 30° NE 16:03:52 10° N visible
21 Dec 3.3 17:33:06 10° S 17:38:11 71° WSW 17:43:18 10° NNW visible
21 Dec 5.8 19:15:04 10° WSW 19:18:10 16° W 19:21:17 10° NW visible
22 Dec 5.5 05:32:57 10° NE 05:36:58 23° E 05:40:57 10° SE visible
22 Dec 3.0 07:11:30 10° NNE 07:16:38 83° WNW 07:21:44 10° SSW visible
22 Dec 2.9 16:56:21 10° SSE 17:01:24 69° ENE 17:06:29 10° NNW visible
22 Dec 5.0 18:36:34 10° SSW 18:40:54 28° W 18:45:15 10° NNW visible
23 Dec 6.1 04:57:16 10° NE 04:59:36 13° E 05:01:55 10° ESE visible
23 Dec 3.7 06:34:44 10° NNE 06:39:47 58° ESE 06:44:47 10° S visible
23 Dec 3.4 16:20:01 10° SE 16:24:46 41° ENE 16:29:32 10° N visible
23 Dec 4.0 17:58:53 10° S 18:03:48 47° W 18:08:44 10° NNW visible
23 Dec 6.2 19:43:13 10° W 19:44:09 10° WNW 19:45:05 10° WNW visible
24 Dec 4.8 05:58:08 10° NNE 06:02:44 33° E 06:07:19 10° SSE visible
24 Dec 3.1 07:37:04 10° NNE 07:42:05 57° WNW 07:47:04 10° SW visible
24 Dec 3.9 15:44:07 10° ESE 15:48:18 26° NE 15:52:29 10° N visible
24 Dec 3.0 17:21:47 10° SSE 17:26:53 83° WSW 17:32:01 10° NNW visible
24 Dec 5.6 19:03:09 10° SW 19:06:43 19° W 19:10:18 10° NW visible
